Home   Weather   Perm   Past weeks

Flag for Russia Past Weather in Perm, Russia — Yesterday and Last 2 Weeks

Now
1 °F

Light snow. Ice fog.


Feels Like: -10 °F
Forecast: 5 / 12 °F
Wind: 6 mph from Southeast

Location: Perm'/Bolshoe Savino

Current Time: Jan 18, 2017 at 9:33:35 pm

Latest Report: Jan 18, 2017 at 8:30 pm


Visibility: 2 mi

Pressure: 30.27 "Hg

Humidity: 92%

Dew Point: 0 °F

Location of PermLocation

Past Weather in Perm — Graph

°F

Perm Temperature Yesterday

Maximum temperature yesterday: 14 °F (at 3:00 pm)
Minimum temperature yesterday: -11 °F (at 7:30 am)
Average temperature yesterday: -3 °F

High & Low Weather Summary for the Past Weeks

 TemperatureHumidityPressure
High23 °F (Jan 3, 8:00 pm)100% (Jan 4, 12:00 am)30.60 "Hg (Jan 4, 12:00 am)
Low-36 °F (Jan 9, 10:00 am)59% (Jan 9, 9:30 am)29.27 "Hg (Jan 3, 8:00 pm)
Average0 °F84%30.20 "Hg
* Reported Jan 3 8:00 pm — Jan 18 8:30 pm, Perm, Weather by CustomWeather, © 2017

Note: Actual official high and low records may vary slightly from our data, if they occured in-between our weather recording intervals... More about our weather records

Advertising

Perm Weather History for the Previous 24 Hours

Scroll right to see more
 ConditionsComfort  
Time TempWeatherWind HumidityBarometerVisibility
8:30 pm
Wed, Jan 18
1 °FLight snow. Ice fog.6 mph92%30.27 "Hg2 mi
8:00 pm1 °FLight snow. Ice fog.8 mph85%30.27 "Hg3 mi
7:30 pm0 °FLight snow. Passing clouds.6 mph84%30.30 "Hg6 mi
7:00 pm0 °FSnow. Ice fog.6 mph84%30.30 "Hg2 mi
6:30 pm0 °FFrigid.3 mph84%30.30 "Hg1 mi
6:00 pm0 °FIce fog.1 mph84%30.30 "Hg3 mi
5:30 pm0 °FPassing clouds.6 mph84%30.30 "Hg6 mi
5:00 pm1 °FClear.6 mph85%30.30 "Hg6 mi
4:30 pm1 °FClear.3 mph85%30.33 "Hg6 mi
4:00 pm3 °FClear.1 mph85%30.33 "Hg6 mi
3:30 pm5 °FPassing clouds.3 mph85%30.33 "HgN/A
3:00 pm5 °FClear.3 mph92%30.33 "Hg6 mi
2:30 pm5 °FClear.No wind85%30.33 "Hg6 mi
2:00 pm3 °FIce fog.No wind85%30.36 "Hg3 mi
1:30 pm1 °FClear.No wind85%30.36 "Hg4 mi
1:00 pm0 °FSnow flurries. Ice fog.1 mph84%30.36 "Hg3 mi
12:30 pm-2 °FSnow flurries. Ice fog.1 mph84%30.39 "Hg2 mi
12:00 pm-2 °FSnow flurries. Ice fog.No wind84%30.39 "Hg3 mi
11:30 am-4 °FIce fog.1 mph84%30.39 "Hg3 mi
11:00 am-4 °FPartly sunny.1 mph84%30.39 "Hg4 mi
10:30 am-2 °FPassing clouds.No wind84%30.39 "Hg5 mi
10:00 am-4 °FPassing clouds.No wind84%30.42 "Hg5 mi
9:30 am-8 °FPassing clouds.1 mph84%30.42 "Hg4 mi
9:00 am-9 °FPassing clouds.1 mph84%30.42 "Hg5 mi
8:30 am-8 °FPassing clouds.3 mph84%30.42 "Hg6 mi
8:00 am-8 °FPassing clouds.No wind84%30.42 "Hg6 mi
7:30 am-8 °FPassing clouds.1 mph84%30.45 "Hg6 mi
7:00 am-8 °FClear.No wind84%30.45 "Hg5 mi
6:30 am-6 °FPassing clouds.No wind77%30.45 "Hg5 mi
6:00 am-8 °FPassing clouds.No wind84%30.48 "Hg5 mi
5:30 am-6 °FPassing clouds.No wind84%30.48 "Hg5 mi
5:00 am-4 °FClear.No wind84%30.48 "Hg5 mi
4:30 am-4 °FPassing clouds.No wind84%30.48 "Hg6 mi
4:00 am-2 °FPassing clouds.No wind84%30.51 "Hg6 mi
3:30 am-8 °FPassing clouds.No wind84%30.51 "Hg6 mi
3:00 am-6 °FPassing clouds.1 mph84%30.51 "Hg5 mi
2:30 am-6 °FClear.1 mph84%30.51 "Hg6 mi
2:00 am-6 °FClear.1 mph77%30.51 "Hg5 mi
1:30 am-8 °FClear.1 mph84%30.54 "Hg5 mi
1:00 am-8 °FClear.1 mph77%30.54 "Hg4 mi
12:30 am-6 °FClear.No wind77%30.54 "Hg4 mi
12:00 am-8 °FClear.No wind84%30.54 "Hg5 mi
11:30 pm
Tue, Jan 17
-8 °FIce fog.No wind84%30.54 "Hg2 mi
11:00 pm-4 °FIce fog.1 mph92%30.54 "Hg3 mi
10:30 pm-4 °FIce fog.3 mph84%30.54 "Hg3 mi
10:00 pm-8 °FIce fog.1 mph84%30.54 "Hg3 mi
9:30 pm-2 °FIce fog.1 mph84%30.57 "Hg2 mi
9:00 pm-2 °FIce fog.3 mph84%30.57 "Hg3 mi
Weather by CustomWeather, © 2017

See weather overviewHow to use our weather pages